"2016-07-07 00:00:00",1786969,4.487,338.6,9.43,0.443,26.12,111.9526,29.92,30.93,11.27,0,111.7,12.95,30.77,300.6
"2016-07-07 00:00:30",1786970,4.817,313,4.472,0.734,25.98,111.9321,29.86,30.92,11.18,0,111.7,12.94,30.72,275.0
"2016-07-07 00:01:00",1786971,5.296,318.7,2.262,0.268,25.96,111.9372,29.88,30.9,10.6,0,111.7,12.94,30.73,280.7
"2016-07-07 00:01:30",1786972,5.163,327,2.158,0.121,26,111.9425,29.89,30.89,10.21,0,111.7,12.94,30.75,289.0
"2016-07-07 00:02:00",1786973,5.174,328.4,1.48,0.103,26.03,111.9492,29.91,30.92,10.13,0,111.7,12.94,30.76,290.4
"2016-07-07 00:02:30",1786974,5.007,337.2,4.942,0.107,25.9,111.9487,29.91,30.91,11.28,0,111.7,12.94,30.76,299.2
"2016-07-07 00:03:00",1786975,6.18,334.9,5.392,0.52,25.99,111.9532,29.92,30.91,11.26,0,111.7,12.94,30.77,296.9
"2016-07-07 00:03:30",1786976,5.945,341.5,3.267,0.169,25.99,111.9522,29.91,30.93,10.85,0,111.7,12.93,30.77,303.5
"2016-07-07 00:04:00",1786977,6.5,325,9.93,0.579,26.05,111.9513,29.91,30.91,10.5,0,111.7,12.93,30.77,287.0
"2016-07-07 00:04:30",1786978,5.845,326.5,4.999,0.52,26.04,111.9497,29.91,30.91,10.55,0,111.7,12.93,30.76,288.5
"2016-07-07 00:05:00",1786979,5.788,330.7,9.47,0.917,26.11,111.9447,29.9,30.92,10.66,0,111.7,12.93,30.75,292.7
"2016-07-07 00:05:30",1786980,5.704,331.2,6.314,0.777,26.12,111.9318,29.86,30.9,10.76,0,111.7,12.93,30.72,293.2
"2016-07-07 00:06:00",1786981,6.553,319,3.307,0.255,26.12,111.9327,29.86,30.89,10.99,0,111.7,12.93,30.72,281.0
"2016-07-07 00:06:30",1786982,6.509,323.5,11.04,0.875,26.2,111.9297,29.86,30.86,11.11,0,111.7,12.93,30.71,285.5
"2016-07-07 00:07:00",1786983,5.676,350.2,3.731,0.859,26.31,111.9202,29.83,30.86,10.94,0,111.7,12.93,30.69,312.2
"2016-07-07 00:07:30",1786984,6.526,347.5,2.381,0.338,26.24,111.9147,29.82,30.84,11.01,0,111.7,12.94,30.67,309.5
"2016-07-07 00:08:00",1786985,6.568,335.8,8.48,0.794,26.22,111.9144,29.82,30.84,11.19,0,111.7,12.94,30.67,297.8
"2016-07-07 00:08:30",1786986,7.518,315.8,2.887,0.499,26.28,111.9034,29.79,30.81,11.23,0,111.7,12.94,30.64,277.8
"2016-07-07 00:09:00",1786987,6.28,306.5,4.747,0.294,26.24,111.8959,29.77,30.79,10.83,0,111.7,12.94,30.63,268.5
"2016-07-07 00:09:30",1786988,5.237,324.2,10.12,0.915,26.3,111.8667,29.69,30.76,11.28,0,111.7,12.94,30.55,286.2
"2016-07-07 00:10:00",1786989,5.062,318.3,13.59,0.725,26.51,111.8244,29.59,30.67,11.36,0,111.7,12.94,30.44,280.3
"2016-07-07 00:10:30",1786990,5.907,307,11.49,0.566,26.35,111.807,29.54,30.62,11.2,0,111.7,12.94,30.40,269.0
"2016-07-07 00:11:00",1786991,7.101,316.7,3.738,0.597,26.22,111.8051,29.54,30.59,10.84,0,111.7,12.94,30.39,278.7
"2016-07-07 00:11:30",1786992,7.403,318.8,2.484,0.441,26.22,111.8065,29.54,30.58,10.37,0,111.7,12.94,30.39,280.8
"2016-07-07 00:12:00",1786993,7.284,316.7,2.48,0.344,26.19,111.8098,29.55,30.56,10.2,0,111.7,12.94,30.40,278.7
"2016-07-07 00:12:30",1786994,5.77,318.2,3.886,1.022,26.51,111.8082,29.54,30.57,10.59,0,111.7,12.94,30.40,280.2
"2016-07-07 00:13:00",1786995,7.102,322.7,3.815,0.841,26.29,111.8017,29.53,30.54,10.77,0,111.7,12.94,30.38,284.7
"2016-07-07 00:13:30",1786996,7.575,313.6,3.054,0.661,26.2,111.802,29.53,30.53,10.24,0,111.7,12.94,30.38,275.6
"2016-07-07 00:14:00",1786997,6.91,318.9,4.317,0.457,26.18,111.8017,29.53,30.52,10.18,0,111.7,12.94,30.38,280.9
"2016-07-07 00:14:30",1786998,8.59,314.7,3.782,0.519,26.21,111.7967,29.51,30.51,10.2,0,111.7,12.94,30.37,276.7
"2016-07-07 00:15:00",1786999,7.846,318.5,4.478,0.45,26.18,111.7995,29.52,30.5,10.19,0,111.7,12.94,30.38,280.5
"2016-07-07 00:15:30",1787000,7.569,320.4,3.494,0.542,26.24,111.8,29.52,30.52,10.17,0,111.7,12.94,30.38,282.4
"2016-07-07 00:16:00",1787001,7.953,313.7,1.982,0.345,26.24,111.7995,29.52,30.53,10.08,0,111.7,12.94,30.38,275.7
"2016-07-07 00:16:30",1787002,8.56,327.9,7.337,0.445,26.23,111.8,29.52,30.52,10.14,0,111.7,12.94,30.38,289.9
"2016-07-07 00:17:00",1787003,8.62,324,1.654,0.395,26.18,111.7984,29.52,30.51,10.17,0,111.7,12.94,30.37,286.0
"2016-07-07 00:17:30",1787004,8.48,323.3,1.989,0.336,26.2,111.7911,29.5,30.51,10.04,0,111.7,12.94,30.35,285.3
"2016-07-07 00:18:00",1787005,8.01,320.3,1.514,0.447,26.21,111.7843,29.48,30.51,10.16,0,111.7,12.94,30.34,282.3
"2016-07-07 00:18:30",1787006,8.68,313.7,5.18,0.452,26.29,111.7807,29.47,30.5,10.09,0,111.7,12.94,30.33,275.7
"2016-07-07 00:19:00",1787007,8.03,314.1,2.038,0.314,26.28,111.7771,29.46,30.51,9.99,0,111.7,12.94,30.32,276.1
"2016-07-07 00:19:30",1787008,8.29,315.7,1.315,0.298,26.26,111.7746,29.46,30.51,10.06,0,111.7,12.94,30.31,277.7
"2016-07-07 00:20:00",1787009,8.66,312.6,1.464,0.247,26.33,111.7702,29.45,30.49,9.83,0,111.7,12.94,30.30,274.6
"2016-07-07 00:20:30",1787010,8.15,314.8,2.723,0.25,26.3,111.7699,29.45,30.51,9.76,0,111.7,12.94,30.30,276.8
"2016-07-07 00:21:00",1787011,8.46,324.2,3.988,0.606,26.3,111.7709,29.45,30.49,9.91,0,111.7,12.94,30.30,286.2
"2016-07-07 00:21:30",1787012,7.959,328,5.435,0.76,26.31,111.7724,29.45,30.48,10.06,0,111.7,12.94,30.31,290.0
"2016-07-07 00:22:00",1787013,7.512,326.5,5.033,0.216,26.29,111.7767,29.46,30.48,10.19,0,111.7,12.94,30.32,288.5
"2016-07-07 00:22:30",1787014,6.659,328.1,4.068,0.396,26.36,111.7754,29.46,30.48,10.46,0,111.7,12.94,30.31,290.1
"2016-07-07 00:23:00",1787015,6.808,318,5.218,0.298,26.23,111.778,29.47,30.47,10.33,0,111.7,12.94,30.32,280.0
"2016-07-07 00:23:30",1787016,7.128,326.1,7.009,0.873,26.3,111.7759,29.46,30.46,10.32,0,111.7,12.94,30.32,288.1
"2016-07-07 00:24:00",1787017,8.13,325,2.838,0.293,26.24,111.7728,29.45,30.46,10.11,0,111.7,12.94,30.31,287.0
"2016-07-07 00:24:30",1787018,8.27,326.4,1.994,0.26,26.3,111.7721,29.45,30.45,9.94,0,111.7,12.94,30.31,288.4
"2016-07-07 00:25:00",1787019,8.02,324.5,1.732,0.232,26.26,111.773,29.45,30.47,9.88,0,111.7,12.95,30.31,286.5
"2016-07-07 00:25:30",1787020,8.37,324.4,1.861,0.394,26.29,111.7709,29.45,30.45,9.92,0,111.6,12.95,30.30,286.4
"2016-07-07 00:26:00",1787021,8.34,323.1,1.755,0.378,26.26,111.7718,29.45,30.44,9.95,0,111.7,12.95,30.30,285.1
"2016-07-07 00:26:30",1787022,9.42,322.2,3.479,0.446,26.25,111.7661,29.44,30.44,9.9,0,111.7,12.95,30.29,284.2
"2016-07-07 00:27:00",1787023,9.53,319.3,3.336,0.337,26.37,111.7619,29.42,30.43,9.99,0,111.6,12.95,30.28,281.3
"2016-07-07 00:27:30",1787024,10.32,314.3,1.996,0.691,26.35,111.7629,29.43,30.43,10.18,0,111.7,12.95,30.28,276.3
"2016-07-07 00:28:00",1787025,11.13,314.4,3.665,0.721,26.35,111.7623,29.43,30.42,9.92,0,111.6,12.95,30.28,276.4
"2016-07-07 00:28:30",1787026,9.45,320.7,4.063,0.335,26.42,111.7581,29.41,30.41,10.06,0,111.6,12.95,30.27,282.7
"2016-07-07 00:29:00",1787027,9.78,314.8,7.602,0.779,26.38,111.7452,29.38,30.4,10.21,0,111.6,12.95,30.24,276.8
"2016-07-07 00:29:30",1787028,8.61,306.7,2.793,0.257,26.36,111.7374,29.36,30.4,10.19,0,111.6,12.95,30.22,268.7
"2016-07-07 00:30:00",1787029,9.07,307.1,2.236,0.429,26.38,111.7307,29.34,30.38,10.2,0,111.6,12.95,30.20,269.1
"2016-07-07 00:30:30",1787030,8.52,306.8,5.728,0.483,26.37,111.7296,29.34,30.37,10.21,0,111.6,12.95,30.20,268.8
"2016-07-07 00:31:00",1787031,8.65,312.3,2.4,0.666,26.33,111.7296,29.34,30.37,10.12,0,111.6,12.95,30.20,274.3
"2016-07-07 00:31:30",1787032,8.3,314.7,2.988,0.315,26.39,111.7293,29.34,30.35,9.95,0,111.6,12.95,30.20,276.7
"2016-07-07 00:32:00",1787033,8.11,314,1.59,0.452,26.29,111.7265,29.33,30.34,9.98,0,111.6,12.95,30.19,276.0
"2016-07-07 00:32:30",1787034,9.14,315.6,2.987,0.282,26.32,111.7208,29.32,30.34,9.84,0,111.6,12.95,30.17,277.6
"2016-07-07 00:33:00",1787035,10.17,313.8,3.144,0.362,26.3,111.7139,29.3,30.32,9.75,0,111.6,12.95,30.16,275.8
"2016-07-07 00:33:30",1787036,10.86,314,1.901,0.292,26.35,111.705,29.28,30.33,9.77,0,111.6,12.95,30.13,276.0
"2016-07-07 00:34:00",1787037,9.9,315.7,4.408,0.393,26.37,111.7022,29.27,30.31,10.01,0,111.6,12.95,30.13,277.7
"2016-07-07 00:34:30",1787038,9.22,308.7,1.931,0.449,26.32,111.7025,29.27,30.3,9.87,0,111.6,12.95,30.13,270.7
"2016-07-07 00:35:00",1787039,10.03,310.2,2.884,0.221,26.36,111.7044,29.28,30.28,9.79,0,111.6,12.95,30.13,272.2
"2016-07-07 00:35:30",1787040,8.66,313.8,5.677,0.574,26.36,111.7047,29.28,30.28,10.02,0,111.6,12.95,30.13,275.8
"2016-07-07 00:36:00",1787041,8.54,316.3,3.235,0.496,26.38,111.7045,29.28,30.27,10.23,0,111.6,12.95,30.13,278.3
"2016-07-07 00:36:30",1787042,9.72,310.7,3.468,0.262,26.28,111.7037,29.27,30.26,9.82,0,111.6,12.95,30.13,272.7
"2016-07-07 00:37:00",1787043,9.48,316.4,1.904,0.715,26.26,111.6986,29.26,30.25,9.67,0,111.6,12.95,30.12,278.4
"2016-07-07 00:37:30",1787044,8.11,320.6,3.82,0.452,26.34,111.6874,29.23,30.26,10.02,0,111.6,12.96,30.09,282.6
"2016-07-07 00:38:00",1787045,8.47,327.1,3.924,0.408,26.44,111.6818,29.22,30.25,10.28,0,111.6,12.95,30.07,289.1
"2016-07-07 00:38:30",1787046,8.72,321,2.322,0.387,26.35,111.6807,29.22,30.23,9.93,0,111.6,12.96,30.07,283.0
"2016-07-07 00:39:00",1787047,9.86,318.7,2.825,0.671,26.35,111.6798,29.21,30.23,9.7,0,111.6,12.95,30.07,280.7
"2016-07-07 00:39:30",1787048,9.55,317.5,3.368,1.057,26.37,111.6765,29.2,30.22,9.85,0,111.6,12.95,30.06,279.5
"2016-07-07 00:40:00",1787049,9.38,314.5,2.131,0.952,26.35,111.674,29.2,30.21,9.91,0,111.6,12.95,30.05,276.5
"2016-07-07 00:40:30",1787050,9.76,316.2,3.021,0.332,26.38,111.6717,29.19,30.21,9.74,0,111.6,12.96,30.05,278.2
"2016-07-07 00:41:00",1787051,9.41,320.7,3.077,0.49,26.39,111.6717,29.19,30.2,9.72,0,111.6,12.95,30.05,282.7
"2016-07-07 00:41:30",1787052,8.83,320.7,2.95,0.412,26.41,111.6717,29.19,30.21,9.73,0,111.6,12.96,30.05,282.7
"2016-07-07 00:42:00",1787053,8.54,322.7,4.901,0.395,26.37,111.6717,29.19,30.2,9.82,0,111.6,12.96,30.05,284.7
"2016-07-07 00:42:30",1787054,8.72,319.6,2.837,0.415,26.35,111.6717,29.19,30.2,9.8,0,111.6,12.96,30.05,281.6
"2016-07-07 00:43:00",1787055,8.54,319.4,2.211,0.205,26.36,111.6717,29.19,30.2,9.79,0,111.6,12.95,30.05,281.4
"2016-07-07 00:43:30",1787056,7.767,323.3,2.746,0.21,26.3,111.6714,29.19,30.18,9.82,0,111.6,12.95,30.05,285.3
"2016-07-07 00:44:00",1787057,8.42,320.6,2.621,0.444,26.34,111.6709,29.19,30.19,9.91,0,111.6,12.95,30.04,282.6
"2016-07-07 00:44:30",1787058,8.42,320.7,2.396,0.208,26.33,111.6706,29.19,30.18,9.84,0,111.6,12.96,30.04,282.7
"2016-07-07 00:45:00",1787059,8.54,316.9,2.002,0.372,26.4,111.6692,29.19,30.18,9.7,0,111.6,12.96,30.04,278.9
"2016-07-07 00:45:30",1787060,7.957,316.9,6.127,0.441,26.37,111.6698,29.19,30.17,9.8,0,111.6,12.96,30.04,278.9
"2016-07-07 00:46:00",1787061,8.98,312.7,4.555,0.572,26.35,111.6695,29.19,30.18,9.83,0,111.6,12.95,30.04,274.7
"2016-07-07 00:46:30",1787062,8.58,319,4.255,1.257,26.39,111.6676,29.18,30.18,10.11,0,111.6,12.96,30.04,281.0
"2016-07-07 00:47:00",1787063,10.36,321.5,2.062,0.404,26.41,111.6665,29.18,30.19,10.08,0,111.6,12.96,30.03,283.5
"2016-07-07 00:47:30",1787064,10.9,317.8,1.374,0.229,26.36,111.6655,29.18,30.17,10.04,0,111.6,12.96,30.03,279.8
"2016-07-07 00:48:00",1787065,11.24,315.3,1.538,0.176,26.38,111.6623,29.17,30.18,9.84,0,111.6,12.96,30.02,277.3
"2016-07-07 00:48:30",1787066,10.95,314.1,1.473,0.36,26.43,111.6605,29.16,30.17,9.55,0,111.6,12.96,30.02,276.1
"2016-07-07 00:49:00",1787067,10.94,313.4,1.953,0.31,26.41,111.6552,29.15,30.17,9.82,0,111.6,12.96,30.00,275.4
"2016-07-07 00:49:30",1787068,11.02,311.4,1.466,0.431,26.46,111.6526,29.14,30.17,9.75,0,111.6,12.96,30.00,273.4
"2016-07-07 00:50:00",1787069,10.35,313.7,3.843,0.974,26.49,111.6522,29.14,30.17,10.01,0,111.6,12.96,30.00,275.7
"2016-07-07 00:50:30",1787070,11.73,313.9,1.488,0.493,26.47,111.6496,29.14,30.17,9.88,0,111.6,12.96,29.99,275.9
"2016-07-07 00:51:00",1787071,11.47,313.2,1.866,0.658,26.51,111.6481,29.13,30.15,9.96,0,111.6,12.96,29.99,275.2
"2016-07-07 00:51:30",1787072,9.92,322.2,4.448,0.293,26.44,111.6518,29.14,30.15,10.15,0,111.6,12.96,29.99,284.2
"2016-07-07 00:52:00",1787073,9.54,329.3,1.934,0.245,26.43,111.6559,29.15,30.15,10.28,0,111.6,12.96,30.01,291.3
"2016-07-07 00:52:30",1787074,9.81,325.8,5.711,1.021,26.47,111.66,29.16,30.13,10.2,0,111.6,12.96,30.02,287.8
"2016-07-07 00:53:00",1787075,10.55,316.7,3.155,0.267,26.52,111.6585,29.16,30.13,9.88,0,111.6,12.96,30.01,278.7
"2016-07-07 00:53:30",1787076,12.75,315.7,1.53,0.521,26.66,111.6468,29.13,30.11,9.75,0,111.6,12.96,29.98,277.7
"2016-07-07 00:54:00",1787077,12.24,315.5,2.536,0.528,26.74,111.6398,29.11,30.11,9.71,0,111.6,12.96,29.96,277.5
"2016-07-07 00:54:30",1787078,12.07,312.1,1.598,0.336,26.61,111.6329,29.09,30.1,9.82,0,111.6,12.95,29.95,274.1
"2016-07-07 00:55:00",1787079,11.89,314.3,0.897,0.372,26.53,111.6326,29.09,30.09,9.74,0,111.6,12.95,29.95,276.3
"2016-07-07 00:55:30",1787080,10.12,313.7,2.538,0.922,26.47,111.6247,29.07,30.07,9.98,0,111.6,12.95,29.93,275.7
"2016-07-07 00:56:00",1787081,9.23,314.1,3.537,0.286,26.44,111.6135,29.04,30.07,10.15,0,111.6,12.95,29.90,276.1
"2016-07-07 00:56:30",1787082,8.66,314.1,5.801,0.517,26.39,111.6074,29.03,30.06,10.32,0,111.6,12.95,29.88,276.1
"2016-07-07 00:57:00",1787083,8.56,313.6,4.288,0.395,26.39,111.6051,29.02,30.04,10.27,0,111.6,12.95,29.87,275.6
"2016-07-07 00:57:30",1787084,8.2,315.5,3.682,0.84,26.39,111.6001,29.01,30.03,10.14,0,111.6,12.95,29.86,277.5
"2016-07-07 00:58:00",1787085,8.13,314.9,2.565,0.709,26.36,111.6005,29.01,30.02,10.38,0,111.6,12.95,29.86,276.9
"2016-07-07 00:58:30",1787086,10.09,316,3.32,1.067,26.38,111.6024,29.01,30,10.15,0,111.6,12.95,29.87,278.0
"2016-07-07 00:59:00",1787087,10.65,312.1,1.021,0.319,26.39,111.6024,29.01,30.02,9.91,0,111.6,12.95,29.87,274.1
"2016-07-07 00:59:30",1787088,10.5,313.1,3.411,0.725,26.45,111.603,29.02,30,10.02,0,111.6,12.95,29.87,275.1
"2016-07-07 01:00:00",1787089,9.93,313,2.5,0.3,26.43,111.5997,29.01,30.01,9.89,0,111.6,12.96,29.86,275.0
"2016-07-07 01:00:30",1787090,9.97,319.8,5.564,0.382,26.41,111.5945,28.99,29.99,9.88,0,111.6,12.96,29.85,281.8
"2016-07-07 01:01:00",1787091,9.17,312.7,4.304,0.296,26.38,111.5878,28.98,29.98,10.08,0,111.6,12.96,29.83,274.7
"2016-07-07 01:01:30",1787092,9.71,312.2,2.855,0.702,26.39,111.5836,28.97,29.98,10.18,0,111.6,12.96,29.82,274.2
"2016-07-07 01:02:00",1787093,9.87,316.7,4.192,0.558,26.42,111.5831,28.96,29.97,10.03,0,111.6,12.96,29.82,278.7
"2016-07-07 01:02:30",1787094,9.51,318.9,3.233,0.928,26.42,111.5837,28.97,29.96,10.03,0,111.6,12.96,29.82,280.9
"2016-07-07 01:03:00",1787095,9.1,315.6,5.081,0.853,26.4,111.5831,28.96,29.97,10.25,0,111.6,12.96,29.82,277.6
"2016-07-07 01:03:30",1787096,7.884,313.5,5.853,0.478,26.48,111.5831,28.96,29.95,10.46,0,111.6,12.96,29.82,275.5
"2016-07-07 01:04:00",1787097,8.33,309.5,4.043,0.407,26.63,111.582,28.96,29.96,10.4,0,111.6,12.96,29.81,271.5
"2016-07-07 01:04:30",1787098,7.696,314.8,2.784,0.59,26.61,111.5778,28.95,29.97,10.37,0,111.6,12.96,29.80,276.8
"2016-07-07 01:05:00",1787099,7.835,315.9,6.841,0.656,26.65,111.5752,28.94,29.95,10.37,0,111.6,12.96,29.80,277.9
"2016-07-07 01:05:30",1787100,6.585,305.2,3.051,0.246,26.56,111.5747,28.94,29.95,10.38,0,111.6,12.96,29.80,267.2
"2016-07-07 01:06:00",1787101,7.887,311.4,4.972,0.478,26.49,111.5744,28.94,29.95,10.43,0,111.6,12.96,29.80,273.4
"2016-07-07 01:06:30",1787102,7.935,313.2,4.462,0.561,26.46,111.5722,28.94,29.94,10.42,0,111.6,12.96,29.79,275.2
"2016-07-07 01:07:00",1787103,7.656,316,5.428,0.458,26.44,111.5638,28.91,29.92,10.42,0,111.6,12.96,29.77,278.0
"2016-07-07 01:07:30",1787104,8.42,317.5,3.537,0.661,26.56,111.5514,28.88,29.9,10.35,0,111.6,12.96,29.74,279.5
"2016-07-07 01:08:00",1787105,8.12,317.7,3.235,0.463,26.58,111.5436,28.86,29.9,10.35,0,111.6,12.96,29.72,279.7
"2016-07-07 01:08:30",1787106,9.36,313.8,2.524,0.598,26.71,111.5414,28.86,29.9,10.23,0,111.6,12.96,29.71,275.8
"2016-07-07 01:09:00",1787107,10.83,314.2,2.168,1.041,26.62,111.541,28.86,29.88,10,0,111.6,12.96,29.71,276.2
"2016-07-07 01:09:30",1787108,9.29,315.9,3.696,0.519,26.42,111.5363,28.84,29.87,10.15,0,111.6,12.96,29.70,277.9
"2016-07-07 01:10:00",1787109,10.16,317.1,2.188,0.28,26.48,111.5224,28.81,29.86,9.98,0,111.5,12.96,29.66,279.1
"2016-07-07 01:10:30",1787110,10.43,315.2,1.587,0.34,26.44,111.5192,28.8,29.85,10.09,0,111.5,12.96,29.65,277.2
"2016-07-07 01:11:00",1787111,10.46,315.5,2.816,0.362,26.5,111.5187,28.8,29.84,9.99,0,111.5,12.96,29.65,277.5
"2016-07-07 01:11:30",1787112,10.44,314.8,1.636,0.376,26.48,111.5175,28.8,29.86,9.9,0,111.5,12.96,29.65,276.8
"2016-07-07 01:12:00",1787113,10.08,311.6,1.185,0.31,26.49,111.5136,28.79,29.84,9.92,0,111.5,12.96,29.64,273.6
"2016-07-07 01:12:30",1787114,9.74,312,1.169,0.221,26.49,111.5123,28.78,29.83,9.91,0,111.5,12.96,29.63,274.0
"2016-07-07 01:13:00",1787115,9.11,315.5,1.714,0.306,26.45,111.5108,28.78,29.83,9.88,0,111.5,12.96,29.63,277.5
"2016-07-07 01:13:30",1787116,9.39,314.3,2.449,0.49,26.45,111.5139,28.79,29.82,9.93,0,111.5,12.96,29.64,276.3
"2016-07-07 01:14:00",1787117,9.83,315.7,2.194,0.491,26.48,111.5171,28.79,29.83,9.87,0,111.5,12.96,29.65,277.7
"2016-07-07 01:14:30",1787118,10.51,316.3,1.759,0.208,26.5,111.5167,28.79,29.82,9.94,0,111.5,12.96,29.65,278.3
"2016-07-07 01:15:00",1787119,10.45,317.8,1.507,0.337,26.48,111.5209,28.8,29.83,9.88,0,111.5,12.96,29.66,279.8
"2016-07-07 01:15:30",1787120,10.43,314.7,3.823,0.34,26.46,111.53,28.83,29.84,10.08,0,111.5,12.96,29.68,276.7
"2016-07-07 01:16:00",1787121,10.47,316.3,2.756,0.299,26.48,111.5357,28.84,29.83,10.08,0,111.5,12.96,29.70,278.3
"2016-07-07 01:16:30",1787122,9.73,315,1.587,0.423,26.44,111.5393,28.85,29.83,10.16,0,111.5,12.96,29.70,277.0
"2016-07-07 01:17:00",1787123,10.2,313.8,1.053,0.83,26.47,111.538,28.85,29.84,10.19,0,111.5,12.96,29.70,275.8
"2016-07-07 01:17:30",1787124,10.65,314.9,1.36,0.161,26.53,111.5383,28.85,29.84,10.06,0,111.5,12.96,29.70,276.9
"2016-07-07 01:18:00",1787125,10.61,316.7,1.138,0.193,26.51,111.5402,28.85,29.85,10.02,0,111.5,12.96,29.71,278.7
"2016-07-07 01:18:30",1787126,10.86,315.8,1.085,0.159,26.49,111.5433,28.86,29.84,10.06,0,111.5,12.96,29.71,277.8
"2016-07-07 01:19:00",1787127,11.13,314.9,1.122,0.378,26.55,111.5427,28.86,29.85,10.01,0,111.5,12.96,29.71,276.9
"2016-07-07 01:19:30",1787128,11.03,315.9,1.997,0.323,26.55,111.5431,28.86,29.83,9.93,0,111.5,12.96,29.71,277.9
"2016-07-07 01:20:00",1787129,10.66,315,0.873,0.275,26.5,111.5434,28.86,29.83,10.11,0,111.5,12.96,29.72,277.0
"2016-07-07 01:20:30",1787130,11.18,313.7,1.126,0.289,26.53,111.5409,28.86,29.84,10.01,0,111.5,12.97,29.71,275.7
"2016-07-07 01:21:00",1787131,11.22,312.5,1.661,0.246,26.58,111.5367,28.85,29.83,9.88,0,111.5,12.97,29.70,274.5
"2016-07-07 01:21:30",1787132,11.24,312.2,1.143,0.135,26.61,111.5361,28.84,29.84,9.8,0,111.5,12.96,29.70,274.2
"2016-07-07 01:22:00",1787133,10.87,310.2,0.787,0.283,26.6,111.5359,28.84,29.84,9.75,0,111.5,12.97,29.70,272.2
"2016-07-07 01:22:30",1787134,10.43,310.1,1.402,0.408,26.55,111.5362,28.84,29.84,9.78,0,111.5,12.97,29.70,272.1
"2016-07-07 01:23:00",1787135,10.18,310.7,1.126,0.293,26.52,111.5374,28.85,29.83,9.82,0,111.5,12.97,29.70,272.7
"2016-07-07 01:23:30",1787136,10.21,313.6,3.874,0.605,26.49,111.539,28.85,29.83,9.95,0,111.5,12.97,29.70,275.6
"2016-07-07 01:24:00",1787137,10.78,317.8,1.99,0.364,26.55,111.5415,28.86,29.83,9.85,0,111.5,12.97,29.71,279.8
"2016-07-07 01:24:30",1787138,10.66,317.4,3.034,0.381,26.48,111.5424,28.86,29.84,9.84,0,111.5,12.97,29.71,279.4
"2016-07-07 01:25:00",1787139,10.63,316.2,1.65,0.342,26.5,111.5431,28.86,29.84,9.86,0,111.5,12.97,29.71,278.2
"2016-07-07 01:25:30",1787140,10.92,316.7,1.53,0.43,26.54,111.5443,28.86,29.82,9.89,0,111.5,12.97,29.72,278.7
"2016-07-07 01:26:00",1787141,10.4,311.4,2.234,0.553,26.51,111.5432,28.86,29.83,9.91,0,111.5,12.97,29.71,273.4
"2016-07-07 01:26:30",1787142,10.1,308.4,1.719,0.211,26.5,111.5424,28.86,29.81,9.97,0,111.5,12.97,29.71,270.4
"2016-07-07 01:27:00",1787143,10.73,311.7,2.469,0.368,26.54,111.5386,28.85,29.83,9.98,0,111.5,12.97,29.70,273.7
"2016-07-07 01:27:30",1787144,10.85,312,2.416,0.365,26.49,111.539,28.85,29.81,9.98,0,111.5,12.97,29.70,274.0
"2016-07-07 01:28:00",1787145,10.1,313.8,3.286,0.302,26.37,111.5351,28.84,29.82,10.11,0,111.5,12.97,29.69,275.8
"2016-07-07 01:28:30",1787146,10.95,309.8,2.015,0.411,26.5,111.5309,28.83,29.82,10.2,0,111.5,12.97,29.68,271.8
"2016-07-07 01:29:00",1787147,11.56,313.1,1.569,0.313,26.57,111.5236,28.81,29.8,10.02,0,111.5,12.97,29.66,275.1
"2016-07-07 01:29:30",1787148,11.18,313.2,1.897,0.347,26.56,111.5205,28.8,29.8,10.06,0,111.5,12.96,29.66,275.2
"2016-07-07 01:30:00",1787149,11.64,311.8,1.207,0.298,26.6,111.5166,28.79,29.79,9.96,0,111.5,12.96,29.65,273.8
"2016-07-07 01:30:30",1787150,11.45,314.6,1.914,0.268,26.55,111.5132,28.78,29.78,10.04,0,111.5,12.96,29.64,276.6
"2016-07-07 01:31:00",1787151,11.12,314.5,2.027,0.361,26.52,111.5116,28.78,29.79,10.06,0,111.5,12.96,29.63,276.5
"2016-07-07 01:31:30",1787152,10.71,312.1,2.136,0.472,26.54,111.5113,28.78,29.79,10.1,0,111.5,12.96,29.63,274.1
"2016-07-07 01:32:00",1787153,10.65,312.7,1.5,0.267,26.5,111.5113,28.78,29.77,10.18,0,111.5,12.96,29.63,274.7
"2016-07-07 01:32:30",1787154,10.18,314,2.981,0.437,26.47,111.5113,28.78,29.78,10.21,0,111.5,12.96,29.63,276.0
"2016-07-07 01:33:00",1787155,10.63,313.1,3.344,0.545,26.52,111.5113,28.78,29.76,10.26,0,111.5,12.96,29.63,275.1
"2016-07-07 01:33:30",1787156,11.15,312.3,2.003,0.348,26.55,111.5101,28.78,29.76,10.14,0,111.5,12.96,29.63,274.3
"2016-07-07 01:34:00",1787157,11.03,312.6,1.788,0.66,26.52,111.5062,28.77,29.76,10.19,0,111.5,12.96,29.62,274.6
"2016-07-07 01:34:30",1787158,11.93,309.8,1.306,0.149,26.63,111.4972,28.74,29.77,10.05,0,111.5,12.96,29.60,271.8
"2016-07-07 01:35:00",1787159,12.25,309.7,0.944,0.246,26.61,111.488,28.72,29.74,10.01,0,111.5,12.96,29.57,271.7
"2016-07-07 01:35:30",1787160,12.66,310.4,1.408,0.247,26.58,111.4863,28.72,29.75,10.01,0,111.5,12.97,29.57,272.4
"2016-07-07 01:36:00",1787161,12.48,309.3,0.698,0.248,26.61,111.4841,28.71,29.73,10,0,111.5,12.97,29.56,271.3
"2016-07-07 01:36:30",1787162,12.6,310.8,1.671,0.324,26.67,111.479,28.7,29.72,9.96,0,111.5,12.97,29.55,272.8
"2016-07-07 01:37:00",1787163,12.73,308.4,1.017,0.151,26.68,111.4776,28.69,29.73,9.98,0,111.5,12.97,29.55,270.4
"2016-07-07 01:37:30",1787164,12.99,309.6,1.439,0.489,26.66,111.4776,28.69,29.72,10.02,0,111.5,12.97,29.55,271.6
"2016-07-07 01:38:00",1787165,12.56,311.7,2.382,0.34,26.58,111.4776,28.69,29.72,10.1,0,111.5,12.97,29.55,273.7
"2016-07-07 01:38:30",1787166,13.34,308.1,2.031,0.5,26.61,111.4776,28.69,29.7,10.15,0,111.5,12.97,29.55,270.1
"2016-07-07 01:39:00",1787167,13.9,307.7,0.92,0.234,26.67,111.4776,28.69,29.71,10.04,0,111.5,12.97,29.55,269.7
"2016-07-07 01:39:30",1787168,13.78,306.6,0.982,0.187,26.64,111.4773,28.69,29.68,10.02,0,111.5,12.97,29.54,268.6
"2016-07-07 01:40:00",1787169,13.86,305.4,0.914,0.254,26.74,111.4751,28.69,29.69,10.03,0,111.5,12.97,29.54,267.4
"2016-07-07 01:40:30",1787170,13.13,307,0.526,0.195,26.64,111.4695,28.67,29.67,9.99,0,111.5,12.97,29.52,269.0
"2016-07-07 01:41:00",1787171,13.57,307.7,0.895,0.24,26.64,111.4586,28.64,29.68,10.1,0,111.5,12.97,29.50,269.7
"2016-07-07 01:41:30",1787172,13.35,308.6,0.498,0.168,26.7,111.4535,28.63,29.67,10.04,0,111.5,12.97,29.48,270.6
"2016-07-07 01:42:00",1787173,13.45,309.6,0.766,0.27,26.66,111.4534,28.63,29.65,10.05,0,111.5,12.97,29.48,271.6
"2016-07-07 01:42:30",1787174,13.78,308.8,0.673,0.157,26.65,111.455,28.64,29.66,10.08,0,111.5,12.97,29.49,270.8
"2016-07-07 01:43:00",1787175,13.89,308,0.433,0.15,26.74,111.4574,28.64,29.65,10.08,0,111.5,12.98,29.49,270.0
"2016-07-07 01:43:30",1787176,13.57,309.4,1.051,0.249,26.72,111.4545,28.63,29.65,10.01,0,111.5,12.98,29.49,271.4
"2016-07-07 01:44:00",1787177,13.37,308.6,0.85,0.41,26.72,111.4564,28.64,29.64,9.93,0,111.5,12.98,29.49,270.6
"2016-07-07 01:44:30",1787178,13.99,307,1.349,0.254,26.77,111.4607,28.65,29.65,9.92,0,111.5,12.97,29.50,269.0
"2016-07-07 01:45:00",1787179,13.75,307.2,0.916,0.383,26.73,111.4642,28.66,29.65,9.95,0,111.5,12.98,29.51,269.2
"2016-07-07 01:45:30",1787180,13.06,307,2.025,0.315,26.69,111.4692,28.67,29.65,9.92,0,111.5,12.97,29.52,269.0
"2016-07-07 01:46:00",1787181,13.03,306.9,1.485,0.435,26.66,111.4696,28.67,29.64,9.96,0,111.5,12.98,29.52,268.9
"2016-07-07 01:46:30",1787182,12.78,306,2.48,0.318,26.66,111.4705,28.68,29.65,9.97,0,111.5,12.98,29.53,268.0
"2016-07-07 01:47:00",1787183,12.29,306.9,0.899,0.361,26.66,111.4708,28.68,29.64,10.05,0,111.5,12.97,29.53,268.9